GW3655 Weather Reports


Display with metric or nautical units.
time (UTC)temp
F
wind
direction
speed
MPH
gust
MPH
rain 1hr
in
rain 24hr
in
rain mn
in
humidity
%
barometer
mb
20260504185508 59 221 11.0 24.0 0.00 0.00 0.00 66 29.9
20260504185000 59 193 11.0 19.0 0.00 0.00 0.00 66 29.9
20260504184000 59 209 20.0 23.0 0.00 0.00 0.00 66 29.9
20260504183500 59 209 17.0 26.0 0.00 0.00 0.00 66 29.9
20260504183000 58 215 20.0 29.0 0.00 0.00 0.00 67 29.9
20260504182500 59 206 16.0 22.0 0.00 0.00 0.00 67 29.9
20260504182000 58 203 21.0 27.0 0.00 0.00 0.00 68 29.9
20260504181500 58 216 17.0 29.0 0.00 0.00 0.00 69 29.9
20260504181000 58 206 17.0 27.0 0.00 0.00 0.00 68 29.9
20260504180500 58 211 19.0 28.0 0.00 0.00 0.00 68 29.9
20260504180000 58 201 21.0 27.0 0.00 0.00 0.00 69 29.9
20260504175500 58 209 22.0 29.0 0.00 0.00 0.00 69 29.9
20260504175000 58 216 22.0 24.0 0.00 0.00 0.00 69 29.9
20260504174500 58 214 13.0 20.0 0.00 0.00 0.00 70 29.9
20260504174000 58 200 18.0 28.0 0.00 0.00 0.00 70 29.9
20260504173501 58 217 18.0 25.0 0.00 0.00 0.00 69 29.9
20260504172500 58 213 21.0 24.0 0.00 0.00 0.00 71 29.9
20260504172000 58 202 13.0 21.0 0.00 0.00 0.00 70 29.9
20260504171500 57 210 13.0 27.0 0.00 0.00 0.00 72 29.9
20260504171000 58 210 11.0 24.0 0.00 0.00 0.00 71 29.9
20260504170500 57 207 12.0 19.0 0.00 0.00 0.00 73 29.9
20260504151000 57 246 12.0 14.0 0.00 0.00 0.00 67 29.9
20260504141000 56 210 15.0 22.0 0.00 0.00 0.00 66 29.9
20260504140500 56 199 17.0 22.0 0.00 0.00 0.00 65 29.9
20260504130500 56 227 17.0 22.0 0.00 0.00 0.00 58 29.9
20260504110500 52 217 11.0 18.0 0.00 0.00 0.00 59 29.9
20260504081500 51 252 6.0 9.0 0.00 0.00 0.00 60 29.9
20260504080501 51 257 9.0 9.0 0.00 0.00 0.00 60 29.9
20260504050000 51 216 6.0 9.0 0.00 0.00 0.00 60 29.9
20260504045500 51 214 5.0 9.0 0.00 0.00 0.00 59 29.9
20260504045000 51 239 8.0 10.0 0.00 0.00 0.00 59 29.9
20260504044000 52 233 4.0 8.0 0.00 0.00 0.00 59 29.9
20260504043500 51 225 11.0 13.0 0.00 0.00 0.00 59 29.9
20260504042500 52 231 4.0 10.0 0.00 0.00 0.00 56 29.9
20260504042000 52 257 4.0 6.0 0.00 0.00 0.00 56 29.9
20260504041500 52 215 6.0 8.0 0.00 0.00 0.00 55 29.9
20260504040500 52 234 4.0 7.0 0.00 0.00 0.00 55 29.9
20260504035500 52 215 4.0 5.0 0.00 0.00 0.00 54 29.9
20260504035000 53 236 4.0 6.0 0.00 0.00 0.00 53 29.9
20260504034000 53 260 5.0 6.0 0.00 0.00 0.00 52 29.9
20260504033000 52 213 4.0 8.0 0.00 0.00 0.00 56 29.9
20260504032500 53 240 6.0 9.0 0.00 0.00 0.00 56 29.9
20260504032000 52 208 5.0 11.0 0.00 0.00 0.00 56 29.9
20260504030500 52 214 4.0 7.0 0.00 0.00 0.00 56 29.9
20260504025500 52 215 3.0 6.0 0.00 0.00 0.00 54 29.9
20260504025000 52 238 4.0 6.0 0.00 0.00 0.00 54 29.9
20260504024500 52 240 5.0 6.0 0.00 0.00 0.00 54 29.9
20260504024000 52 218 3.0 5.0 0.00 0.00 0.00 53 29.9
20260504023500 52 218 4.0 6.0 0.00 0.00 0.00 52 29.9
20260504022000 53 214 4.0 7.0 0.00 0.00 0.00 51 29.9
20260504020000 53 202 3.0 4.0 0.00 0.00 0.00 45 29.9
20260504015500 53 232 2.0 4.0 0.00 0.00 0.00 44 29.9
20260504014500 53 213 3.0 5.0 0.00 0.00 0.00 40 29.9
20260504013500 54 225 2.0 4.0 0.00 0.00 0.00 34 29.9
20260504013000 54 211 2.0 3.0 0.00 0.00 0.00 34 29.9
20260504012500 54 221 3.0 4.0 0.00 0.00 0.00 33 29.9
20260504012000 54 205 3.0 4.0 0.00 0.00 0.00 34 29.9
20260504011500 54 209 3.0 4.0 0.00 0.00 0.00 33 29.9
20260504010500 54 206 3.0 4.0 0.00 0.00 0.00 33 29.9
20260504010000 54 207 2.0 2.0 0.00 0.00 0.00 34 29.9
20260504005500 55 207 1.0 2.0 0.00 0.00 0.00 32 29.9
20260504005000 55 256 2.0 3.0 0.00 0.00 0.00 30 29.9
20260504004500 55 268 1.0 3.0 0.00 0.00 0.00 30 29.9
20260504004000 56 298 2.0 2.0 0.00 0.00 0.00 29 29.9
20260504003501 56 277 3.0 4.0 0.00 0.00 0.00 29 29.8
20260504003000 56 265 3.0 4.0 0.00 0.00 0.00 29 29.8
20260504002501 56 279 2.0 3.0 0.00 0.00 0.00 28 29.8
20260504000500 57 291 5.0 5.0 0.00 0.00 0.00 27 29.8
20260504000000 57 283 3.0 5.0 0.00 0.00 0.00 27 29.8
20260503235500 57 294 2.0 6.0 0.00 0.00 0.00 27 29.8
20260503235000 57 281 6.0 10.0 0.00 0.00 0.00 26 29.8
20260503234500 58 275 6.0 7.0 0.00 0.00 0.00 26 29.8
20260503234000 58 241 4.0 7.0 0.00 0.00 0.00 26 29.8
20260503233500 58 275 4.0 8.0 0.00 0.00 0.00 25 29.8
20260503232500 58 283 8.0 13.0 0.00 0.00 0.00 24 29.8
20260503232000 59 278 11.0 15.0 0.00 0.00 0.00 24 29.8
20260503231500 59 250 6.0 14.0 0.00 0.00 0.00 24 29.8
20260503231000 59 260 12.0 17.0 0.00 0.00 0.00 24 29.8
20260503225000 59 297 10.0 17.0 0.00 0.00 0.00 24 29.8
20260503223000 59 288 16.0 18.0 0.00 0.00 0.00 24 29.8
20260503222001 59 286 15.0 24.0 0.00 0.00 0.00 24 29.8
20260503221500 59 307 5.0 18.0 0.00 0.00 0.00 24 29.8
20260503221000 59 254 3.0 19.0 0.00 0.00 0.00 25 29.8
20260503220500 59 306 8.0 15.0 0.00 0.00 0.00 25 29.8
20260503220001 59 359 3.0 17.0 0.00 0.00 0.00 25 29.8
20260503215500 59 257 15.0 21.0 0.00 0.00 0.00 25 29.8
20260503215000 59 271 9.0 22.0 0.00 0.00 0.00 25 29.8
20260503214500 59 278 12.0 17.0 0.00 0.00 0.00 25 29.8
20260503214000 59 287 9.0 21.0 0.00 0.00 0.00 25 29.8
20260503213500 59 274 15.0 17.0 0.00 0.00 0.00 25 29.8
20260503213000 58 286 7.0 22.0 0.00 0.00 0.00 25 29.8
20260503212500 58 294 13.0 20.0 0.00 0.00 0.00 26 29.8
20260503212000 58 249 20.0 27.0 0.00 0.00 0.00 25 29.8
20260503211500 58 292 18.0 30.0 0.00 0.00 0.00 25 29.8
20260503211000 58 308 7.0 17.0 0.00 0.00 0.00 26 29.8
20260503210500 58 277 17.0 22.0 0.00 0.00 0.00 26 29.8
20260503210000 58 286 15.0 24.0 0.00 0.00 0.00 26 29.8
20260503205500 58 291 19.0 22.0 0.00 0.00 0.00 26 29.8
20260503205000 58 269 9.0 21.0 0.00 0.00 0.00 27 29.8
20260503204500 57 309 12.0 23.0 0.00 0.00 0.00 27 29.8
20260503204000 58 283 11.0 30.0 0.00 0.00 0.00 27 29.8
20260503203500 58 276 20.0 28.0 0.00 0.00 0.00 28 29.8
20260503203001 58 344 9.0 19.0 0.00 0.00 0.00 28 29.8
20260503202500 58 250 7.0 12.0 0.00 0.00 0.00 29 29.8
20260503202000 57 295 12.0 20.0 0.00 0.00 0.00 29 29.8
20260503201500 57 269 13.0 20.0 0.00 0.00 0.00 29 29.8
20260503201000 57 307 15.0 23.0 0.00 0.00 0.00 29 29.8
20260503200500 56 329 9.0 26.0 0.00 0.00 0.00 29 29.8
20260503200000 57 266 16.0 27.0 0.00 0.00 0.00 29 29.8
20260503195500 57 284 7.0 24.0 0.00 0.00 0.00 30 29.8
20260503195000 58 293 12.0 24.0 0.00 0.00 0.00 29 29.8
20260503194500 57 305 16.0 17.0 0.00 0.00 0.00 30 29.8
20260503194000 56 324 3.0 20.0 0.00 0.00 0.00 31 29.8
20260503193500 56 351 11.0 17.0 0.00 0.00 0.00 31 29.8
20260503193000 55 267 11.0 17.0 0.00 0.00 0.00 32 29.8
20260503192500 55 300 13.0 21.0 0.00 0.00 0.00 32 29.8
20260503192000 55 307 6.0 27.0 0.00 0.00 0.00 32 29.8
20260503191500 55 258 17.0 26.0 0.00 0.00 0.00 32 29.8
20260503191000 55 287 18.0 21.0 0.00 0.00 0.00 32 29.8
20260503190500 55 293 13.0 28.0 0.00 0.00 0.00 33 29.8
20260503190000 55 304 9.0 17.0 0.00 0.00 0.00 32 29.8